GW5617 Weather Reports


time (UTC)temp
F
wind
direction
speed
knots
gust
knots
rain 1hr
in
rain 24hr
in
rain mn
in
humidity
%
barometer
mb
20260906183016 89 185 0.0 3.5 0.00 0.00 0.00 68 1015.0
20260906181523 89 210 1.7 3.5 0.00 0.00 0.00 69 1015.1
20260906180053 87 150 1.7 4.3 0.00 0.00 0.00 72 1015.2
20260906174534 86 186 1.7 3.5 0.00 0.00 0.00 75 1015.3
20260906173034 84 260 0.9 3.5 0.00 0.00 0.00 76 1015.5
20260906171519 83 219 0.9 4.3 0.00 0.00 0.00 78 1015.6
20260906170025 82 162 0.0 3.5 0.00 0.00 0.00 82 1015.9
20260906164530 81 73 0.9 2.6 0.00 0.00 0.00 83 1015.9
20260906163030 80 87 0.0 1.7 0.00 0.00 0.00 85 1015.9
20260906161534 79 153 0.0 2.6 0.00 0.00 0.00 86 1016.2
20260906160017 79 116 0.0 0.0 0.00 0.00 0.00 87 1016.0
20260906154526 79 116 0.0 0.9 0.00 0.00 0.00 87 1016.4
20260906153028 78 207 0.0 2.6 0.00 0.00 0.00 86 1016.4
20260906151533 78 208 1.7 4.3 0.00 0.00 0.00 86 1016.4
20260906150033 79 200 2.6 5.2 0.00 0.00 0.00 87 1016.7
20260906144522 79 89 0.0 2.6 0.00 0.00 0.00 87 1015.5
20260906143033 79 186 0.9 6.1 0.00 0.00 0.00 86 1015.5
20260906141529 78 143 0.0 1.7 0.00 0.00 0.00 87 1015.5
20260906140016 78 84 0.0 2.6 0.00 0.00 0.00 87 1015.6
20260906134511 78 27 0.0 1.7 0.00 0.00 0.00 88 1015.7
20260906133012 78 182 0.9 3.5 0.00 0.00 0.00 87 1015.7
20260906131530 78 51 1.7 4.3 0.00 0.00 0.00 88 1015.8
20260906130015 77 79 0.9 2.6 0.00 0.00 0.00 90 1015.7
20260906124513 76 91 0.9 2.6 0.00 0.00 0.00 91 1015.5
20260906123014 76 60 0.0 2.6 0.00 0.00 0.00 91 1015.3
20260906121514 75 65 0.0 2.6 0.00 0.00 0.00 91 1015.2
20260906120018 75 91 0.0 1.7 0.00 0.00 0.00 91 1014.9
20260906114510 75 72 0.0 1.7 0.00 0.00 0.00 92 1014.7
20260906113021 75 114 0.0 1.7 0.00 0.00 0.00 92 1014.6
20260906111519 75 86 0.0 0.9 0.00 0.00 0.00 92 1014.7
20260906110019 75 86 0.0 0.9 0.00 0.00 0.00 92 1014.7
20260906104532 75 88 0.0 0.9 0.00 0.00 0.00 92 1014.7
20260906103010 75 87 0.0 0.9 0.00 0.00 0.00 91 1014.5
20260906101517 75 95 0.0 0.9 0.00 0.00 0.00 91 1014.4
20260906100018 76 118 0.0 1.7 0.00 0.00 0.00 90 1014.3
20260906094534 76 66 0.0 0.0 0.00 0.00 0.00 90 1014.3
20260906093034 76 67 0.0 0.9 0.00 0.00 0.00 90 1014.4
20260906091511 76 65 0.0 0.9 0.00 0.00 0.00 90 1014.4
20260906090017 76 65 0.0 0.0 0.00 0.00 0.00 90 1014.5
20260906084542 76 65 0.0 0.0 0.00 0.00 0.00 90 1014.5
20260906083034 76 65 0.0 0.0 0.00 0.00 0.00 90 1014.4
20260906081524 76 65 0.0 1.7 0.00 0.00 0.00 90 1014.3
20260906080026 77 65 0.0 0.9 0.00 0.00 0.00 89 1014.3
20260906074518 77 65 0.0 2.6 0.00 0.00 0.00 88 1014.3
20260906073028 78 76 0.0 0.9 0.00 0.00 0.00 87 1014.1
20260906071527 78 72 0.0 1.7 0.00 0.00 0.00 87 1014.1
20260906070028 78 84 0.0 1.7 0.00 0.00 0.00 86 1014.4
20260906064516 78 108 0.0 2.6 0.00 0.00 0.00 86 1014.3
20260906063004 79 96 0.0 3.5 0.00 0.00 0.00 86 1014.4
20260906061505 79 82 0.0 3.5 0.00 0.00 0.00 86 1014.4
20260906060009 79 69 0.0 4.3 0.00 0.00 0.00 86 1014.4
20260906054514 79 84 0.9 2.6 0.00 0.00 0.00 86 1014.4
20260906053017 79 58 0.9 1.7 0.00 0.00 0.00 86 1014.5
20260906051525 79 91 0.9 1.7 0.00 0.00 0.00 87 1014.5
20260906050005 79 93 0.0 3.5 0.00 0.00 0.00 87 1014.4
20260906044514 79 91 0.9 2.6 0.00 0.00 0.00 87 1014.5
20260906043017 79 89 0.0 1.7 0.00 0.00 0.00 87 1014.6
20260906041518 79 87 0.0 1.7 0.00 0.00 0.00 86 1014.7
20260906040029 80 63 0.0 2.6 0.00 0.00 0.00 86 1014.6
20260906034511 80 80 0.0 1.7 0.00 0.00 0.00 85 1014.6
20260906033022 80 101 0.0 1.7 0.00 0.00 0.00 85 1014.4
20260906031513 80 110 0.0 1.7 0.00 0.00 0.00 85 1014.4
20260906030017 80 83 0.0 1.7 0.00 0.00 0.00 85 1014.2
20260906024526 80 83 0.0 0.9 0.00 0.00 0.00 84 1013.8
20260906023005 80 83 0.0 0.9 0.00 0.00 0.00 84 1013.6
20260906021511 81 83 0.0 0.9 0.00 0.00 0.00 82 1013.5
20260906020015 81 83 0.0 0.9 0.00 0.00 0.00 82 1013.3
20260906014534 82 98 0.0 0.9 0.00 0.00 0.00 81 1013.0
20260906013028 82 91 0.0 0.9 0.00 0.00 0.00 81 1012.9
20260906011508 83 91 0.0 0.9 0.00 0.00 0.00 79 1012.8
20260906010014 84 94 0.0 0.9 0.00 0.00 0.00 77 1012.7
20260906004533 85 98 0.0 1.7 0.00 0.00 0.00 75 1012.7
20260906003040 86 104 0.0 0.9 0.00 0.00 0.00 74 1012.5
20260906001528 86 104 0.0 2.6 0.00 0.00 0.00 72 1012.7
20260906000010 87 86 0.9 1.7 0.00 0.00 0.00 70 1012.5
20260905234512 88 68 0.9 2.6 0.00 0.00 0.00 69 1012.1
20260905233016 89 49 0.9 1.7 0.00 0.00 0.00 68 1012.2
20260905231525 89 86 0.0 1.7 0.00 0.00 0.00 67 1012.3
20260905230031 89 97 0.9 3.5 0.00 0.00 0.00 65 1012.4
20260905224534 90 69 1.7 5.2 0.00 0.00 0.00 63 1012.4
20260905223014 90 83 0.9 4.3 0.00 0.00 0.00 64 1012.4
20260905221520 90 165 0.9 5.2 0.00 0.00 0.00 62 1012.3
20260905220028 91 97 0.9 6.1 0.00 0.00 0.00 63 1011.9
20260905214532 91 146 0.9 7.0 0.00 0.00 0.00 62 1012.0
20260905213039 90 130 1.7 6.1 0.00 0.00 0.00 59 1012.2
20260905211516 91 230 1.7 5.2 0.00 0.00 0.00 59 1012.5
20260905210022 89 17 2.6 6.1 0.00 0.00 0.00 60 1012.8
20260905204525 89 86 0.9 6.1 0.00 0.00 0.00 61 1012.9
20260905203005 88 94 2.6 8.7 0.00 0.00 0.00 59 1013.2
20260905201513 88 42 1.7 7.8 0.00 0.00 0.00 62 1013.6
20260905200015 88 108 3.5 7.0 0.00 0.00 0.00 59 1013.8
20260905194521 88 321 2.6 6.1 0.00 0.00 0.00 59 1014.5
20260905193034 88 49 2.6 7.8 0.00 0.00 0.00 58 1014.9
20260905191506 87 117 2.6 7.8 0.00 0.00 0.00 63 1014.9
20260905190012 86 79 3.5 9.6 0.00 0.00 0.00 64 1015.2
20260905184535 87 359 3.5 9.6 0.00 0.00 0.00 68 1015.4